CW2840 Weather Reports


Display with metric or nautical units.
time (UTC)temp
F
wind
direction
speed
MPH
gust
MPH
rain 1hr
in
rain 24hr
in
rain mn
in
humidity
%
barometer
mb
20240228190450 66 55 10.0 27.0 0.00 0.00 0.00 38 1021.4
20240228184950 65 358 17.0 31.0 0.00 0.00 0.00 38 1021.6
20240228184157 65 340 18.0 34.0 0.00 0.00 0.00 37 1021.7
20240228181944 65 234 11.0 31.0 0.00 0.00 0.00 39 1021.7
20240228181837 64 316 13.0 34.0 0.00 0.00 0.00 41 1021.4
20240228174939 63 351 13.0 36.0 0.00 0.00 0.00 42 1021.5
20240228173440 62 347 13.0 27.0 0.00 0.00 0.00 42 1021.2
20240228171936 62 340 8.0 25.0 0.00 0.00 0.00 45 1021.1
20240228170433 62 243 10.0 31.0 0.00 0.00 0.00 43 1020.8
20240228165619 61 13 13.0 31.0 0.00 0.00 0.00 44 1020.6
20240228163428 62 320 15.0 32.0 0.00 0.00 0.00 45 1019.9
20240228161929 61 0 12.0 27.0 0.00 0.00 0.00 47 1019.6
20240228160424 61 11 13.0 31.0 0.00 0.00 0.00 47 1018.9
20240228155612 61 25 13.0 24.0 0.00 0.00 0.00 48 1018.5
20240228153421 61 354 8.0 27.0 0.00 0.00 0.00 50 1018.3
20240228151919 62 355 10.0 18.0 0.00 0.00 0.00 52 1017.8
20240228150419 62 316 8.0 27.0 0.00 0.00 0.00 53 1017.5
20240228144915 62 0 11.0 27.0 0.00 0.00 0.00 58 1017.1
20240228143413 63 316 12.0 25.0 0.00 0.00 0.00 61 1016.5
20240228141914 67 316 9.0 31.0 0.00 0.00 0.00 72 1015.8
20240228140413 71 210 0.0 5.0 0.00 0.00 0.00 89 1014.9
20240228134912 71 189 2.0 3.0 0.00 0.00 0.00 89 1014.2
20240228133410 71 330 0.0 5.0 0.00 0.00 0.00 89 1014.1
20240228132613 71 309 3.0 7.0 0.00 0.00 0.00 88 1013.7
20240228130406 72 314 3.0 9.0 0.00 0.00 0.00 86 1013.5
20240228124908 72 248 3.0 11.0 0.00 0.00 0.00 86 1013.0
20240228123410 72 279 3.0 13.0 0.00 0.00 0.00 86 1012.7
20240228121906 72 262 5.0 11.0 0.00 0.00 0.00 86 1012.2
20240228120405 72 210 5.0 16.0 0.00 0.00 0.00 85 1011.3
20240228114905 72 190 3.0 11.0 0.00 0.00 0.00 85 1011.1
20240228114057 72 307 4.0 7.0 0.00 0.00 0.00 85 1010.8
20240228112610 72 193 7.0 14.0 0.00 0.00 0.00 85 1010.7
20240228110405 72 269 6.0 14.0 0.00 0.00 0.00 84 1010.4
20240228104904 72 252 3.0 13.0 0.00 0.00 0.00 84 1010.1
20240228104111 72 252 2.0 13.0 0.00 0.00 0.00 84 1009.6
20240228101906 72 192 7.0 14.0 0.00 0.00 0.00 84 1008.8
20240228100406 73 144 10.0 18.0 0.00 0.00 0.00 84 1008.3
20240228094905 73 220 5.0 14.0 0.00 0.00 0.00 84 1008.4
20240228093400 73 209 9.0 18.0 0.00 0.00 0.00 84 1008.2
20240228091900 73 186 5.0 14.0 0.00 0.00 0.00 84 1008.5
20240228090400 73 199 8.0 18.0 0.00 0.00 0.00 84 1008.4
20240228085938 73 200 4.0 16.0 0.00 0.00 0.00 83 1009.1
20240228085208 73 190 6.0 14.0 0.00 0.00 0.00 84 1008.6
20240228083359 73 200 4.0 16.0 0.00 0.00 0.00 83 1009.1
20240228081900 73 223 9.0 16.0 0.00 0.00 0.00 83 1009.3
20240228080358 73 199 10.0 20.0 0.00 0.00 0.00 83 1008.7
20240228074857 73 197 8.0 18.0 0.00 0.00 0.00 83 1008.7
20240228073356 73 178 5.0 13.0 0.00 0.00 0.00 83 1008.3
20240228071857 74 178 7.0 14.0 0.00 0.00 0.00 82 1008.8
20240228071059 74 155 10.0 18.0 0.00 0.00 0.00 82 1008.8
20240228064856 74 241 8.0 14.0 0.00 0.00 0.00 82 1008.9
20240228063356 74 195 7.0 14.0 0.00 0.00 0.00 82 1008.9
20240228061855 74 217 9.0 16.0 0.00 0.00 0.00 82 1008.8
20240228060354 74 202 5.0 14.0 0.00 0.00 0.00 82 1009.0
20240228054854 74 155 6.0 14.0 0.00 0.00 0.00 81 1008.4
20240228053355 74 185 6.0 18.0 0.00 0.00 0.00 81 1008.8
20240228051853 74 162 4.0 16.0 0.00 0.00 0.00 81 1008.8
20240228050353 74 193 5.0 20.0 0.00 0.00 0.00 80 1008.7
20240228044852 74 173 6.0 22.0 0.00 0.00 0.00 80 1009.0
20240228043353 74 217 4.0 16.0 0.00 0.00 0.00 80 1008.7
20240228042542 74 169 8.0 18.0 0.00 0.00 0.00 80 1008.2
20240228040353 74 175 8.0 14.0 0.00 0.00 0.00 79 1008.4
20240228034852 74 234 2.0 9.0 0.00 0.00 0.00 79 1008.8
20240228033351 74 193 5.0 9.0 0.00 0.00 0.00 79 1008.2
20240228033248 75 171 4.0 18.0 0.00 0.00 0.00 79 1008.4
20240228030351 75 220 6.0 20.0 0.00 0.00 0.00 78 1008.3
20240228024850 75 210 7.0 18.0 0.00 0.00 0.00 78 1008.1
20240228024044 75 165 5.0 20.0 0.00 0.00 0.00 77 1008.0
20240228021849 75 188 10.0 24.0 0.00 0.00 0.00 76 1008.2
20240228020349 76 220 10.0 25.0 0.00 0.00 0.00 76 1008.1
20240228014849 76 189 7.0 18.0 0.00 0.00 0.00 75 1008.0
20240228013348 76 185 8.0 14.0 0.00 0.00 0.00 75 1007.9
20240228012548 76 213 3.0 16.0 0.00 0.00 0.00 74 1007.8
20240228010348 76 262 7.0 18.0 0.00 0.00 0.00 73 1007.0
20240228004848 76 237 14.0 22.0 0.00 0.00 0.00 73 1007.2
20240228003347 77 189 3.0 25.0 0.00 0.00 0.00 71 1007.4
20240228001848 78 200 9.0 31.0 0.00 0.00 0.00 70 1007.2
20240228000348 78 186 10.0 22.0 0.00 0.00 0.00 69 1006.9
20240227235550 78 210 10.0 24.0 0.00 0.00 0.00 67 1006.9
20240227234054 79 196 5.0 16.0 0.00 0.00 0.00 65 1006.7
20240227231845 80 219 10.0 20.0 0.00 0.00 0.00 64 1006.6
20240227231047 80 196 8.0 22.0 0.00 0.00 0.00 62 1006.4
20240227224843 82 217 8.0 20.0 0.00 0.00 0.00 59 1006.2
20240227223343 83 209 12.0 24.0 0.00 0.00 0.00 57 1006.0
20240227221845 84 212 14.0 22.0 0.00 0.00 0.00 54 1005.8
20240227220342 84 175 8.0 24.0 0.00 0.00 0.00 51 1005.8
20240227214842 85 230 14.0 25.0 0.00 0.00 0.00 49 1005.7
20240227213341 85 214 16.0 34.0 0.00 0.00 0.00 48 1006.0
20240227211841 85 142 14.0 32.0 0.00 0.00 0.00 48 1006.0
20240227210341 86 228 18.0 31.0 0.00 0.00 0.00 46 1006.1
20240227204841 87 179 11.0 29.0 0.00 0.00 0.00 46 1005.8
20240227204722 87 219 14.0 31.0 0.00 0.00 0.00 45 1006.3
20240227201836 86 206 13.0 29.0 0.00 0.00 0.00 47 1006.4
20240227200334 86 212 13.0 31.0 0.00 0.00 0.00 48 1006.7
20240227194832 87 240 7.0 34.0 0.00 0.00 0.00 49 1006.9
20240227193332 86 135 10.0 31.0 0.00 0.00 0.00 48 1007.0